Home   Weather   Bogota   Past weeks

Flag for Colombia Past Weather in Bogota, Colombia — Yesterday and Last 2 Weeks

Now
55 °F

Passing clouds.


Feels Like: 55 °F
Forecast: 50 / 66 °F
Wind: 2 mph from North

Location: Bogota / Eldorado

Current Time: Oct 21, 2017 at 1:57:08 am

Latest Report: Oct 21, 2017 at 1:00 am


Visibility: N/A

Pressure: 30.28 "Hg (22.15 "Hg at 2618m altitude)

Humidity: 94%

Dew Point: 54 °F

Location of BogotaLocation

Past Weather in Bogota — Graph

°F

Bogota Temperature Yesterday

Maximum temperature yesterday: 70 °F (at 1:00 pm)
Minimum temperature yesterday: 45 °F (at 6:00 am)
Average temperature yesterday: 58 °F

High & Low Weather Summary for the Past Weeks

 TemperatureHumidityPressure
High70 °F (Oct 10, 12:00 pm)100% (Oct 8, 1:00 am)30.44 "Hg (Oct 8, 1:00 am)
Low41 °F (Oct 9, 6:00 am)40% (Oct 6, 1:00 pm)30.03 "Hg (Oct 17, 2:00 am)
Average57 °F74%30.31 "Hg
* Reported Oct 6 12:00 am — Oct 21 12:00 am, Bogota. Weather by CustomWeather, © 2017

Note: Actual official high and low records may vary slightly from our data, if they occured in-between our weather recording intervals... More about our weather records

Advertising

Bogota Weather History for the Previous 24 Hours

Scroll right to see more
 ConditionsComfort  
Time TempWeatherWind HumidityBarometerVisibility
12:00 am
Sat, Oct 21
54 °FPassing clouds.2 mph100%30.30 "Hg6 mi
11:00 pm
Fri, Oct 20
55 °FPassing clouds.2 mph88%30.31 "Hg6 mi
10:00 pm55 °FPassing clouds.2 mph88%30.30 "Hg6 mi
9:00 pm57 °FPartly cloudy.5 mph88%30.29 "HgN/A
8:00 pm55 °FPassing clouds.3 mph82%30.26 "HgN/A
7:00 pm61 °FPassing clouds.5 mph68%30.23 "HgN/A
6:00 pm61 °FPassing clouds.5 mph77%30.22 "HgN/A
5:00 pm63 °FScattered clouds.12 mph73%30.19 "HgN/A
4:00 pm63 °FPartly sunny.12 mph77%30.19 "HgN/A
3:00 pm66 °FPartly sunny.9 mph64%30.19 "HgN/A
2:00 pm66 °FPartly sunny.7 mph60%30.22 "HgN/A
1:00 pm70 °FScattered showers. Scattered clouds.12 mph46%30.24 "HgN/A
12:00 pm68 °FPartly sunny.5 mph46%30.27 "HgN/A
11:00 am68 °FPartly sunny.7 mph53%30.30 "HgN/A
10:00 am66 °FScattered clouds.5 mph52%30.32 "Hg4 mi
9:00 am63 °FScattered clouds.2 mph68%30.33 "Hg4 mi
8:00 am57 °FScattered clouds.3 mph82%30.33 "Hg5 mi
7:00 am54 °FScattered clouds.2 mph94%30.33 "Hg4 mi
6:00 am45 °FFog.2 mph93%30.31 "Hg6 mi
5:00 am46 °FPassing clouds.2 mph100%30.28 "HgN/A
4:00 am46 °FPassing clouds.3 mph93%30.27 "HgN/A
3:00 am50 °FPassing clouds.2 mph100%30.29 "HgN/A
2:00 am48 °FPassing clouds.2 mph94%30.29 "HgN/A
1:00 am52 °FPassing clouds.2 mph94%30.30 "HgN/A
Weather by CustomWeather, © 2017

See weather overview